Weather History for Bentonville, AR

Change the Weather History Date:

Sunday, March 17, 2013

  Actual Average Record
Temperature  
Mean Temperature 46 °F -  
Max Temperature 50 °F 60 °F 80 °F (2012)
Min Temperature 41 °F 35 °F 19 °F (1960)
Degree Days  
Heating Degree Days 20    
Moisture  
Dew Point 38 °F    
Average Humidity 79    
Maximum Humidity 93    
Minimum Humidity 62    
Precipitation  
Precipitation 0.12 in - - ()
Sea Level Pressure  
Sea Level Pressure 29.76 in    
Wind  
Wind Speed 11 mph (ENE)    
Max Wind Speed 18 mph    
Max Gust Speed 26 mph    
Visibility 6 miles    
Events Thunderstorm    
Averages and records for this station are not official NWS values.
T = Trace of Precipitation, MM = Missing Value Source: NWS Daily Summary

Daily Weather History Graph

Daily Weather History Graph

Search for Another Location

Airport:

Trip Planner

Search our weather history database for the weather conditions in past years. The results will help you decide how hot, cold, wet, or windy it might be!

Date:

Astronomy

Mar. 17, 2013 Rise Set
Actual Time 7:24 AM CDT 7:26 PM CDT
Civil Twilight 6:58 AM CDT 7:51 PM CDT
Nautical Twilight 6:28 AM CDT 8:21 PM CDT
Astronomical Twilight 5:58 AM CDT 8:52 PM CDT
Moon 10:47 AM CDT (3/17) 12:25 AM CDT (3/17)
Length of Visible Light 12h 53m
Length of Day
12h 01m
Waxing Crescent, 31% of the Moon is Illuminated
Mar 17
Waxing Crescent
Mar 19
First Quarter
Mar 27
Full
Apr 2
Last Quarter
Apr 10
New

Hourly Weather History & Observations

Time (CDT) Temp. Windchill Dew Point Humidity Pressure Visibility Wind Dir Wind Speed Gust Speed Precip Events Conditions
12:15 AM 50.0 °F - 37.4 °F 62% 29.84 in 10.0 mi ENE 9.2 mph - N/A   Partly Cloudy
12:35 AM 50.0 °F - 37.4 °F 62% 29.84 in 10.0 mi ENE 11.5 mph - N/A   Mostly Cloudy
12:55 AM 50.0 °F - 37.4 °F 62% 29.83 in 10.0 mi ENE 11.5 mph - N/A   Mostly Cloudy
1:15 AM 48.2 °F - 37.4 °F 66% 29.83 in 10.0 mi NE 11.5 mph - N/A   Overcast
1:35 AM 48.2 °F - 35.6 °F 62% 29.82 in 10.0 mi ENE 11.5 mph - N/A   Overcast
1:55 AM 48.2 °F - 35.6 °F 62% 29.82 in 10.0 mi NE 12.7 mph - N/A   Overcast
2:15 AM 48.2 °F - 35.6 °F 62% 29.82 in 10.0 mi NE 13.8 mph 17.3 mph N/A   Overcast
2:35 AM 48.2 °F - 35.6 °F 62% 29.81 in 10.0 mi ENE 13.8 mph 17.3 mph N/A   Overcast
2:55 AM 48.2 °F - 35.6 °F 62% 29.81 in 10.0 mi NE 11.5 mph - N/A   Overcast
3:15 AM 48.2 °F - 35.6 °F 62% 29.82 in 10.0 mi NE 11.5 mph - N/A   Overcast
3:35 AM 46.4 °F 40.4 °F 35.6 °F 66% 29.82 in 10.0 mi NE 13.8 mph - N/A   Overcast
3:55 AM 46.4 °F 40.1 °F 35.6 °F 66% 29.82 in 10.0 mi NE 15.0 mph 18.4 mph N/A   Overcast
4:15 AM 46.4 °F 40.4 °F 35.6 °F 66% 29.81 in 10.0 mi ENE 13.8 mph - N/A   Mostly Cloudy
4:35 AM 46.4 °F 39.8 °F 35.6 °F 66% 29.80 in 10.0 mi ENE 16.1 mph 19.6 mph N/A   Mostly Cloudy
4:55 AM 46.4 °F 40.1 °F 35.6 °F 66% 29.79 in 10.0 mi ENE 15.0 mph - N/A   Overcast
5:15 AM 46.4 °F 40.1 °F 35.6 °F 66% 29.79 in 10.0 mi ENE 15.0 mph 26.5 mph N/A   Overcast
5:35 AM 44.6 °F 37.8 °F 35.6 °F 71% 29.82 in 9.0 mi ENE 15.0 mph 19.6 mph N/A   Overcast
5:55 AM 44.6 °F 38.4 °F 35.6 °F 71% 29.83 in 8.0 mi ENE 12.7 mph - N/A   Overcast
6:15 AM 44.6 °F 37.8 °F 35.6 °F 71% 29.85 in 7.0 mi NE 15.0 mph 18.4 mph N/A   Overcast
6:35 AM 44.6 °F 39.2 °F 35.6 °F 71% 29.85 in 6.0 mi ENE 10.4 mph - N/A   Overcast
6:55 AM 42.8 °F 35.8 °F 35.6 °F 76% 29.86 in 5.0 mi ENE 13.8 mph 19.6 mph N/A   Overcast
7:15 AM 42.8 °F 36.2 °F 37.4 °F 81% 29.86 in 3.0 mi NE 12.7 mph - N/A   Overcast
7:35 AM 42.8 °F 35.8 °F 37.4 °F 81% 29.86 in 2.5 mi ENE 13.8 mph 20.7 mph N/A   Overcast
7:55 AM 42.8 °F 34.8 °F 37.4 °F 81% 29.85 in 2.0 mi ENE 17.3 mph 23.0 mph N/A   Overcast
8:15 AM 41.0 °F 32.5 °F 37.4 °F 87% 29.85 in 2.0 mi ENE 17.3 mph 20.7 mph N/A   Overcast
8:35 AM 41.0 °F 33.1 °F 37.4 °F 87% 29.85 in 3.0 mi ENE 15.0 mph 18.4 mph N/A   Overcast
8:55 AM 41.0 °F 32.2 °F 37.4 °F 87% 29.85 in 3.0 mi East 18.4 mph - 0.01 in   Overcast
9:15 AM 41.0 °F 32.5 °F 37.4 °F 87% 29.85 in 3.0 mi East 17.3 mph 26.5 mph N/A   Overcast
9:35 AM 41.0 °F 33.1 °F 37.4 °F 87% 29.85 in 3.0 mi East 15.0 mph 19.6 mph N/A   Overcast
9:55 AM 41.0 °F 32.2 °F 37.4 °F 87% 29.84 in 5.0 mi East 18.4 mph 26.5 mph N/A   Overcast
10:15 AM 41.0 °F 33.5 °F 37.4 °F 87% 29.84 in 3.0 mi East 13.8 mph 21.9 mph N/A   Overcast
10:35 AM 42.8 °F 35.8 °F 37.4 °F 81% 29.83 in 5.0 mi East 13.8 mph 20.7 mph N/A   Overcast
10:55 AM 42.8 °F 35.1 °F 37.4 °F 81% 29.83 in 7.0 mi East 16.1 mph 21.9 mph N/A   Overcast
11:15 AM 42.8 °F 36.6 °F 37.4 °F 81% 29.82 in 8.0 mi East 11.5 mph 20.7 mph N/A   Overcast
11:35 AM 42.8 °F 37.0 °F 37.4 °F 81% 29.82 in 4.0 mi East 10.4 mph 16.1 mph 0.01 in   Overcast
11:55 AM 42.8 °F 35.4 °F 37.4 °F 81% 29.81 in 3.0 mi East 15.0 mph - 0.02 in   Overcast
12:15 PM 42.8 °F 36.2 °F 37.4 °F 81% 29.80 in 4.0 mi East 12.7 mph 19.6 mph N/A   Overcast
12:35 PM 42.8 °F 35.1 °F 37.4 °F 81% 29.77 in 9.0 mi ESE 16.1 mph 21.9 mph N/A   Overcast
12:55 PM 42.8 °F 35.4 °F 39.2 °F 87% 29.76 in 9.0 mi ESE 15.0 mph 19.6 mph N/A   Overcast
1:15 PM 42.8 °F 35.8 °F 39.2 °F 87% 29.76 in 9.0 mi ESE 13.8 mph 23.0 mph N/A   Overcast
1:35 PM 42.8 °F 35.8 °F 39.2 °F 87% 29.75 in 8.0 mi ESE 13.8 mph - N/A   Overcast
1:55 PM 44.6 °F 39.2 °F 39.2 °F 81% 29.74 in 7.0 mi East 10.4 mph - N/A   Overcast
2:15 PM 44.6 °F 39.2 °F 39.2 °F 81% 29.73 in 6.0 mi East 10.4 mph - 0.01 in   Overcast
2:35 PM 44.6 °F 39.7 °F 39.2 °F 81% 29.72 in 6.0 mi East 9.2 mph - 0.01 in   Overcast
2:55 PM 44.6 °F 40.7 °F 39.2 °F 81% 29.71 in 7.0 mi East 6.9 mph - 0.01 in   Overcast
3:15 PM 44.6 °F 41.4 °F 39.2 °F 81% 29.70 in 5.0 mi ENE 5.8 mph - N/A   Overcast
3:35 PM 42.8 °F 38.0 °F 39.2 °F 87% 29.69 in 3.0 mi East 8.1 mph - N/A   Overcast
3:55 PM 44.6 °F 40.2 °F 39.2 °F 81% 29.68 in 3.0 mi ENE 8.1 mph - 0.02 in   Overcast
4:15 PM 44.6 °F 40.7 °F 39.2 °F 81% 29.68 in 3.0 mi ENE 6.9 mph - 0.02 in   Overcast
4:35 PM 44.6 °F 43.1 °F 41.0 °F 87% 29.68 in 4.0 mi NE 3.5 mph - 0.04 in Thunderstorm Overcast
4:55 PM 44.6 °F 40.7 °F 41.0 °F 87% 29.67 in 4.0 mi ENE 6.9 mph - 0.04 in   Overcast
5:15 PM 44.6 °F 40.7 °F 41.0 °F 87% 29.67 in 4.0 mi NE 6.9 mph - 0.01 in   Overcast
5:35 PM 44.6 °F 40.7 °F 41.0 °F 87% 29.67 in 3.0 mi NNE 6.9 mph - 0.01 in   Overcast
5:55 PM 44.6 °F 41.4 °F 41.0 °F 87% 29.67 in 7.0 mi NE 5.8 mph - 0.01 in   Overcast
6:15 PM 44.6 °F 41.4 °F 41.0 °F 87% 29.67 in 7.0 mi NE 5.8 mph - N/A   Overcast
6:35 PM 44.6 °F 40.2 °F 39.2 °F 81% 29.67 in 10.0 mi East 8.1 mph - N/A   Overcast
6:55 PM 44.6 °F 41.4 °F 39.2 °F 81% 29.67 in 10.0 mi East 5.8 mph - N/A   Overcast
7:15 PM 44.6 °F 42.2 °F 41.0 °F 87% 29.67 in 10.0 mi East 4.6 mph - N/A   Overcast
7:35 PM 44.6 °F - 41.0 °F 87% 29.68 in 10.0 mi Calm Calm - N/A   Overcast
7:55 PM 44.6 °F 42.2 °F 41.0 °F 87% 29.68 in 8.0 mi East 4.6 mph - N/A   Overcast
8:15 PM 44.6 °F 42.2 °F 41.0 °F 87% 29.67 in 4.0 mi East 4.6 mph - N/A   Overcast
8:35 PM 44.6 °F 41.4 °F 41.0 °F 87% 29.67 in 3.0 mi ESE 5.8 mph - N/A   Overcast
8:55 PM 44.6 °F 42.2 °F 41.0 °F 87% 29.68 in 1.8 mi ESE 4.6 mph - N/A   Overcast
9:15 PM 44.6 °F 43.1 °F 41.0 °F 87% 29.68 in 1.5 mi East 3.5 mph - N/A   Overcast
9:35 PM 44.6 °F - 41.0 °F 87% 29.68 in 2.0 mi Calm Calm - N/A   Overcast
9:55 PM 44.6 °F - 41.0 °F 87% 29.69 in 1.8 mi Calm Calm - N/A   Overcast
10:15 PM 44.6 °F - 41.0 °F 87% 29.70 in 1.8 mi Calm Calm - N/A   Overcast
10:35 PM 44.6 °F - 41.0 °F 87% 29.69 in 1.8 mi Calm Calm - N/A   Overcast
10:55 PM 44.6 °F - 41.0 °F 87% 29.71 in 1.8 mi Calm Calm - N/A   Overcast
11:15 PM 44.6 °F - 41.0 °F 87% 29.70 in 3.0 mi Calm Calm - 0.01 in   Overcast
11:35 PM 44.6 °F - 41.0 °F 87% 29.70 in 2.5 mi Calm Calm - 0.01 in   Overcast
11:55 PM 44.6 °F - 42.8 °F 93% 29.70 in 2.0 mi Calm Calm - 0.01 in   Overcast